Location: Aranbee
(34.0885°N, 118.2342°W)
Time: 14:01:55
(UTC+00:00)

Tiros 1 - Pass Details

Date: 30 November 2020
Orbit: 630 x 663 km, 48.4° (Epoch: 21 January)

Event Time Altitude Azimuth Distance (km) Brightness Sun altitude
Rises 04:26:08 0° 312° (NW) 2,977 11.1 -45.5°
Enters shadow 04:26:13 - 312° (NW) 2,943 11.0 -45.5°
Reaches altitude 10° 04:28:34 10° 318° (NW) 2,059 - -46.0°
Maximum altitude 04:33:09 47° 32° (NNE) 854 - -47.0°
Drops below altitude 10° 04:37:40 10° 107° (ESE) 2,031 - -47.9°
Sets 04:40:03 0° 113° (ESE) 2,932 - -48.4°
